"Pseudo-MPEC" for TF26H50

Created 2026 Aug 16 0:35:32 UT using Find_Orb

Click here for an explanation of pseudo-MPECs

 
 Astrometry: 
     TF26H50* C2026 08 15.35864520 36 55.560+02 02 48.89   ~8F95 19.93GVNEOCPU74
     TF26H50  C2026 08 15.36198620 36 59.810+02 01 35.61   ~8F95 19.93GVNEOCPU74

Station data:
(U74) JPL SynTrack Robotic Telescope 2, Auberry  (N37.070341 W119.412800)
   US/California.  Observers N. Saini, C. Zhai, R. Trahan, M. Zhan, M. Shao.
   0.36-m f/2.2 Schmidt.

Orbital elements:  TF26H50
   Perihelion 2026 Aug 21.026274 +/- 36.9 TT =  0:37:50.0 (JD 2461273.526274)
Epoch 2026 Aug 15.0 TT = JDT 2461267.5   Earth MOID: 0.0265      AutoNEOCP
M 356.944741333 +/- 23              (J2000 ecliptic)
n   0.506989650 +/- 0.339           Peri.  183.533029 +/- 60
a   1.557650385 +/- 0.695           Node   144.421673 +/- 70
e   0.33333051 +/- 0.253            Incl.   12.445041 +/- 6
P   1.944/710.060d         H 26.75  G  0.15   U 12.0  SR
q 1.038437986 +/- 0.185    Q 2.076862783 +/- 34.6
From 2 observations 2026 Aug. 15 (4.8 min); mean residual 0".00
Residuals in arcseconds: 
260815 U74  .01+  .00     260815 U74  .01+  .00     

Ephemerides (geocentric):
Date (UTC) HH   RA             Dec           delta  r     elong  mag " sig PA
---- --------  ------------   ------------  ------ ------ -----  --- --------
2026 08 16 01  20 53 13.889   -02 14 31.20  .02800 1.0396 163.5 19.9  33d  89
2026 08 16 02  20 54 15.813   -02 31 04.08  .02794 1.0396 163.8 19.9  33d  88
2026 08 16 03  20 55 18.039   -02 47 41.17  .02788 1.0395 164.2 19.9  34d  87
2026 08 16 04  20 56 20.566   -03 04 22.38  .02782 1.0395 164.5 19.9  35d  87
2026 08 16 05  20 57 23.394   -03 21 07.63  .02776 1.0395 164.9 19.9  36d  87
2026 08 16 06  20 58 26.523   -03 37 56.82  .02771 1.0395 165.3 19.9  37d  87
2026 08 16 07  20 59 29.950   -03 54 49.87  .02765 1.0395 165.6 19.8  37d  87
2026 08 16 08  21 00 33.676   -04 11 46.67  .02760 1.0394 166.0 19.8  38d  87
2026 08 16 09  21 01 37.699   -04 28 47.13  .02754 1.0394 166.4 19.8  39d  86
2026 08 16 10  21 02 42.019   -04 45 51.15  .02749 1.0394 166.7 19.8  40d  86
2026 08 16 11  21 03 46.635   -05 02 58.62  .02744 1.0394 167.1 19.8  41d  86
2026 08 16 12  21 04 51.546   -05 20 09.43  .02739 1.0394 167.5 19.8  41d  87
2026 08 16 13  21 05 56.750   -05 37 23.49  .02735 1.0394 167.9 19.7  42d  87
2026 08 16 14  21 07 02.246   -05 54 40.68  .02730 1.0393 168.2 19.7  42d  87
2026 08 16 15  21 08 08.034   -06 12 00.88  .02726 1.0393 168.6 19.7  43d  87
2026 08 16 16  21 09 14.111   -06 29 23.98  .02721 1.0393 169.0 19.7  43d  87
2026 08 16 17  21 10 20.477   -06 46 49.86  .02717 1.0393 169.4 19.7  43d  87
2026 08 16 18  21 11 27.131   -07 04 18.40  .02713 1.0393 169.7 19.7  44d  87
2026 08 16 19  21 12 34.069   -07 21 49.48  .02709 1.0393 170.1 19.6  44d  86
2026 08 16 20  21 13 41.292   -07 39 22.98  .02705 1.0392 170.5 19.6  45d  86
2026 08 16 21  21 14 48.797   -07 56 58.76  .02701 1.0392 170.9 19.6  45d  86
2026 08 16 22  21 15 56.583   -08 14 36.69  .02698 1.0392 171.3 19.6  45d  86
2026 08 16 23  21 17 04.647   -08 32 16.66  .02695 1.0392 171.6 19.6  46d  86
2026 08 17 00  21 18 12.989   -08 49 58.52  .02691 1.0392 172.0 19.5  46d  86
2026 08 17 01  21 19 21.605   -09 07 42.13  .02688 1.0392 172.4 19.5  46d  86
2026 08 17 02  21 20 30.495   -09 25 27.37  .02685 1.0391 172.8 19.5  47d  86
2026 08 17 03  21 21 39.655   -09 43 14.10  .02682 1.0391 173.2 19.5  47d  86
2026 08 17 04  21 22 49.085   -10 01 02.17  .02680 1.0391 173.5 19.5  47d  86
2026 08 17 05  21 23 58.781   -10 18 51.44  .02677 1.0391 173.9 19.4  48d  86
2026 08 17 06  21 25 08.742   -10 36 41.77  .02675 1.0391 174.3 19.4  48d  86
2026 08 17 07  21 26 18.964   -10 54 33.01  .02672 1.0391 174.7 19.4  48d  87
2026 08 17 08  21 27 29.446   -11 12 25.03  .02670 1.0391 175.0 19.4  48d  87
2026 08 17 09  21 28 40.186   -11 30 17.67  .02668 1.0390 175.4 19.4  48d  87
2026 08 17 10  21 29 51.179   -11 48 10.78  .02666 1.0390 175.8 19.3  48d  87
2026 08 17 11  21 31 02.425   -12 06 04.22  .02665 1.0390 176.1 19.3  48d  87
2026 08 17 12  21 32 13.919   -12 23 57.83  .02663 1.0390 176.4 19.3  49d  87
2026 08 17 13  21 33 25.660   -12 41 51.47  .02662 1.0390 176.8 19.3  49d  87
2026 08 17 14  21 34 37.644   -12 59 44.99  .02661 1.0390 177.1 19.3  49d  87
2026 08 17 15  21 35 49.869   -13 17 38.22  .02659 1.0390 177.4 19.2  49d  87
2026 08 17 16  21 37 02.331   -13 35 31.02  .02658 1.0389 177.6 19.2  49d  87
2026 08 17 17  21 38 15.027   -13 53 23.24  .02658 1.0389 177.8 19.2  49d  87
2026 08 17 18  21 39 27.954   -14 11 14.72  .02657 1.0389 178.0 19.2  49d  87
2026 08 17 19  21 40 41.110   -14 29 05.31  .02656 1.0389 178.0 19.2  49d  87
2026 08 17 20  21 41 54.489   -14 46 54.85  .02656 1.0389 178.0 19.2  49d  87
2026 08 17 21  21 43 08.090   -15 04 43.20  .02656 1.0389 177.9 19.2  50d  87
2026 08 17 22  21 44 21.909   -15 22 30.19  .02656 1.0389 177.8 19.2  50d  87
2026 08 17 23  21 45 35.942   -15 40 15.67  .02656 1.0389 177.6 19.2  50d  87
2026 08 18 00  21 46 50.185   -15 57 59.50  .02656 1.0389 177.3 19.2  50d  87